Wind_Speed
1 1 1 1 1 1 1 2 2 2 3 3 3 3 3 4 4 4 4 5 5 6 7 7 8 9 9 10 11 12 14 15 16 18 19 15 9 8 5 5 5 5 5 6 8 7 6 5 3 3 3 5 5 4 6 5 4 2 1 3 4 5 5 4 5 5 5 5 5 5 7 5 5 4 4 5 9 13 17 21 19 17 19 23 25 22 22 21
3 3 3 2 2 2 3 3 3 4 4 4 4 5 5 5 6 6 6 7 7 8 8 9 9 10 10 11 12 14 14 16 19 19 17 11 5 4 1 4 5 5 6 5 6 4 3 3 4 6 5 6 6 5 6 5 5 5 2 3 4 4 6 9 9 9 6 6 9 11 12 10 8 9 7 5 9 11 13 19 20 18 19 21 22 22 25 22
4 4 4 4 4 4 4 5 5 5 6 6 6 6 6 7 7 7 8 8 8 9 9 10 10 11 11 12 13 13 15 18 19 13 7 1 5 3 4 7 7 6 6 4 4 2 4 5 5 7 7 7 7 6 5 5 6 8 6 3 5 5 8 11 13 13 11 10 10 10 11 11 13 15 11 8 10 9 11 17 18 18 19 18 18 18 19 19
6 6 6 5 5 6 6 6 6 7 7 7 8 8 8 8 8 9 9 10 10 10 11 11 11 12 12 13 13 13 16 18 10 4 0 5 6 2 9 12 11 7 6 5 5 5 6 7 5 6 8 8 10 8 6 7 6 7 7 4 6 7 8 12 17 17 12 9 8 10 12 12 15 16 12 10 8 5 12 20 18 20 22 20 21 20 17 17
7 7 7 7 7 7 8 8 8 8 9 9 9 9 9 10 10 10 11 11 11 12 12 12 13 13 13 13 13 13 14 9 0 1 1 3 2 9 12 14 13 9 6 6 5 6 8 8 6 7 8 7 10 9 8 13 11 5 7 9 11 11 9 13 19 15 9 8 10 11 9 12 15 14 13 10 7 8 16 23 24 27 28 26 26 24 24 23
9 9 8 9 9 9 9 9 9 10 10 10 10 11 11 11 11 11 12 12 13 13 13 14 14 14 15 14 14 13 9 4 3 5 5 7 10 14 14 14 13 9 5 5 4 5 7 7 7 9 9 7 8 8 9 15 14 6 7 12 14 14 12 16 19 14 11 9 10 11 11 17 16 14 17 14 16 20 23 26 29 32 32 30 28 25 26 26
10 9 9 10 10 10 10 10 11 11 11 12 12 12 12 13 13 13 13 13 14 15 15 16 16 16 16 15 15 13 8 11 14 11 12 15 16 17 16 14 10 5 5 5 4 5 5 6 9 10 8 7 8 10 11 13 12 7 6 9 14 18 18 20 20 17 15 13 15 15 14 17 15 13 18 19 23 27 26 28 31 33 32 31 29 26 25 25
10 10 10 11 11 11 11 12 12 12 13 13 13 14 14 14 14 15 15 15 16 16 17 17 17 17 17 15 14 11 10 16 17 14 16 16 15 15 12 10 7 5 6 6 5 5 6 8 10 11 8 7 9 10 10 9 8 9 7 9 14 16 17 18 18 18 17 18 19 14 13 19 19 17 20 25 29 30 28 28 30 29 29 28 28 26 25 25
10 11 11 11 12 12 12 13 13 13 14 14 15 15 15 16 16 16 16 16 17 17 17 17 18 17 16 15 11 8 12 16 15 16 16 13 11 10 8 7 6 6 7 7 7 7 8 9 9 8 6 9 10 10 11 7 4 7 8 10 12 12 15 18 20 22 21 21 18 11 12 19 20 15 17 25 27 24 22 20 22 22 24 23 23 24 23 24
11 12 12 12 13 13 13 14 14 14 15 15 16 16 16 17 16 17 16 17 16 16 17 16 17 16 15 15 7 6 11 11 11 13 12 11 11 10 10 9 8 8 9 9 8 9 10 9 9 9 8 10 10 10 10 9 8 9 11 13 15 15 20 22 22 27 25 23 22 13 10 18 19 9 10 24 23 19 19 18 19 20 20 21 21 23 23 24
13 13 13 13 13 14 14 14 15 15 16 16 16 17 16 16 16 16 16 16 15 15 15 15 16 15 15 13 8 9 11 10 10 12 12 14 16 15 14 13 11 9 9 9 9 10 11 10 11 9 7 5 6 11 10 9 10 10 11 12 16 16 22 24 21 26 22 15 20 14 8 15 15 6 15 27 23 19 22 22 22 21 22 23 23 24 24 24
13 13 13 13 13 14 14 14 15 15 15 15 16 15 15 15 14 14 14 14 14 13 14 14 14 14 14 13 15 17 16 15 15 16 18 19 20 18 16 14 12 10 10 10 9 12 13 13 12 8 7 6 6 8 6 6 7 7 7 7 12 12 16 22 19 24 21 12 13 8 1 8 8 10 22 26 21 20 22 21 20 20 22 24 25 26 25 25
12 12 12 12 12 12 12 12 13 13 14 13 14 14 13 13 13 13 12 12 13 12 12 12 13 14 12 12 17 17 15 15 16 17 19 19 19 17 15 13 12 11 12 12 12 13 14 14 13 11 11 10 8 7 6 9 9 6 5 5 9 8 8 15 16 20 16 7 10 9 1 5 5 13 20 20 17 16 18 17 18 19 23 27 28 28 28 28
11 11 10 10 9 10 10 10 11 11 11 11 12 12 12 12 11 11 11 11 11 11 11 12 12 12 11 12 16 15 13 14 13 16 17 17 18 16 15 12 10 11 11 14 15 14 14 13 12 12 12 12 12 11 9 10 8 6 7 5 5 5 4 10 13 9 4 4 13 9 3 5 5 14 17 14 11 11 15 19 22 25 29 31 29 28 28 26
10 9 9 9 8 8 8 8 9 9 10 10 11 11 11 11 11 11 10 10 10 10 10 11 11 10 9 13 15 11 10 10 12 13 11 12 14 13 12 10 9 10 10 14 16 15 14 11 10 9 9 11 11 10 7 5 4 4 6 4 3 4 4 9 11 5 6 3 9 8 2 6 7 10 12 14 16 18 20 22 28 30 30 32 30 27 25 24
9 9 8 8 7 7 7 7 8 8 9 9 10 10 10 11 11 11 11 10 10 10 9 9 10 7 6 10 10 7 6 7 9 9 8 9 10 9 11 10 6 7 10 12 14 13 12 9 7 7 7 7 5 4 4 3 4 4 5 5 4 6 5 4 7 4 9 4 5 7 3 5 5 7 13 19 24 25 23 24 31 32 28 29 29 26 24 21
9 8 8 7 7 7 6 6 7 7 8 8 9 10 10 11 12 12 11 10 10 8 7 8 6 5 8 10 10 7 5 5 6 5 5 5 6 8 9 7 4 5 6 8 10 10 8 6 5 5 6 5 3 3 3 4 4 3 4 5 6 6 6 3 5 2 7 6 4 7 7 7 7 10 18 22 24 25 23 26 31 27 24 25 28 26 19 9
8 8 7 7 7 6 6 6 6 6 7 8 9 10 11 12 12 12 11 9 7 5 5 6 4 2 6 9 8 8 7 8 7 7 9 8 7 7 5 3 3 3 3 4 6 7 7 7 6 3 3 5 4 3 4 5 5 5 5 5 6 6 7 7 6 6 4 4 6 7 8 8 7 9 15 20 23 23 24 29 28 23 25 27 25 16 10 14
8 7 7 7 7 6 6 6 6 6 7 8 9 11 11 10 10 9 6 5 5 3 3 5 8 3 5 7 8 10 13 13 12 13 15 12 8 6 6 5 5 6 5 4 5 10 9 4 4 2 3 5 5 6 8 9 9 10 10 7 8 8 7 9 8 8 9 10 8 8 9 7 7 7 12 21 25 25 28 28 24 26 27 20 11 14 21 24
8 7 7 7 7 6 6 6 6 6 7 8 9 10 8 7 6 4 3 6 9 9 10 8 10 12 14 14 12 13 15 13 12 13 11 8 5 6 7 6 7 7 5 3 4 9 11 4 3 5 5 8 9 10 11 11 10 11 9 8 9 8 8 8 9 9 8 8 7 6 8 8 8 8 14 24 26 23 23 20 22 26 16 9 16 22 24 25
7 7 7 7 7 6 6 6 6 6 7 8 9 7 5 6 4 3 7 12 13 13 17 18 17 18 20 17 15 17 15 10 9 10 8 5 4 5 8 9 6 4 7 8 4 4 7 3 4 7 9 11 11 10 11 11 9 9 8 8 8 7 8 8 11 11 6 4 4 5 8 8 9 12 17 23 18 14 17 17 17 10 10 18 20 24 24 23
8 8 8 8 7 6 6 6 7 7 7 8 7 5 4 5 4 6 8 10 14 15 17 21 22 24 23 17 17 21 15 7 7 9 7 6 8 6 9 10 5 3 6 9 4 3 3 5 9 12 11 11 11 10 10 11 9 7 7 7 6 5 7 8 10 9 2 1 3 6 8 7 11 15 17 18 12 14 21 11 4 15 23 24 24 25 23 23
9 9 8 8 8 6 6 7 7 7 7 6 6 5 5 5 4 7 7 6 13 17 16 19 22 23 19 13 15 18 13 8 10 10 8 7 10 8 8 7 5 5 4 6 6 3 4 5 8 13 12 10 10 10 9 9 6 5 5 5 6 5 6 6 4 5 4 3 6 9 8 7 11 14 13 15 14 12 5 14 26 27 27 27 27 25 24 24
10 9 8 7 7 7 6 7 7 7 7 5 4 4 4 4 5 9 7 6 8 12 15 18 17 15 13 11 12 12 8 8 7 7 9 9 9 7 8 8 6 5 6 7 8 8 7 7 5 6 8 9 8 8 7 7 5 5 6 6 7 7 8 6 4 6 6 6 6 6 5 5 8 9 6 7 8 2 16 28 27 25 26 26 26 25 24 23
11 10 8 6 7 7 6 7 6 5 4 3 2 2 2 3 5 9 7 5 5 7 12 12 10 9 10 10 10 6 5 5 4 7 11 10 8 5 4 8 6 4 7 8 9 8 7 10 7 4 5 6 6 6 6 5 4 5 5 4 5 5 5 5 7 7 5 4 3 3 3 4 5 6 6 7 4 7 17 21 19 22 24 24 25 23 22 23
13 11 9 8 7 6 6 5 2 2 2 1 2 2 2 2 4 7 5 3 3 3 4 5 4 4 5 5 6 6 3 4 6 7 8 9 9 5 1 4 4 3 4 3 4 4 2 2 1 1 2 4 4 6 6 5 4 5 3 3 4 4 5 6 6 5 1 3 3 1 1 4 5 4 10 12 1 9 12 13 14 19 22 22 23 20 20 21
14 13 11 9 9 7 5 4 3 1 0 1 1 1 1 2 3 5 3 3 4 2 3 3 3 3 3 4 7 6 1 4 6 6 8 8 8 6 3 2 2 3 1 2 2 1 3 3 3 3 1 2 3 6 5 4 4 4 2 4 5 5 4 4 3 2 4 4 5 5 4 6 5 5 13 12 5 10 8 9 10 16 20 20 19 18 19 19
16 17 16 13 12 11 9 8 7 5 4 4 2 0 0 1 2 2 1 3 2 3 3 2 2 3 4 5 7 4 1 5 4 3 7 9 8 5 4 3 2 2 3 3 2 1 1 4 4 4 4 4 5 4 3 2 3 2 0 2 3 2 2 3 3 4 4 3 4 5 6 4 4 5 11 7 8 8 7 8 7 12 17 17 17 17 17 18
19 19 19 18 16 15 13 10 8 8 6 5 3 2 0 1 1 1 1 3 0 2 2 2 3 4 5 5 5 4 2 3 1 2 5 8 9 5 2 3 5 4 4 6 5 4 0 3 3 4 4 4 5 3 1 1 2 2 2 1 2 3 4 3 4 3 3 3 5 6 6 3 4 6 5 2 8 6 5 6 7 12 15 15 15 16 16 18
22 21 20 20 17 14 13 11 9 8 6 5 4 2 0 1 0 1 3 2 1 2 3 3 2 5 7 4 4 6 5 2 4 6 5 4 9 6 2 2 3 3 2 4 6 7 1 4 2 3 6 5 3 2 2 2 1 1 1 2 3 5 4 3 3 1 2 3 5 7 9 7 3 5 1 4 6 9 7 6 7 11 13 14 14 15 17 19
22 19 16 16 15 13 13 11 10 10 8 6 4 3 1 1 1 3 4 1 1 1 3 3 2 4 7 3 2 6 5 4 7 7 3 2 6 5 3 1 1 1 3 3 5 6 3 2 1 4 8 5 3 2 1 3 2 2 0 2 4 4 1 1 0 1 1 3 4 5 3 8 4 3 2 5 6 10 10 9 9 10 12 14 14 14 17 19
15 13 12 13 15 14 13 12 10 10 9 7 5 4 2 1 3 4 2 2 0 1 1 2 2 4 4 0 1 2 1 4 7 5 3 4 4 4 4 3 3 1 2 2 1 2 3 5 5 3 4 5 3 1 0 1 2 3 2 1 1 2 1 0 0 2 3 4 3 3 6 2 5 5 3 3 5 5 7 11 13 14 14 15 14 15 16 18
12 11 12 14 15 15 14 13 10 9 9 8 7 5 2 3 5 4 4 2 1 1 1 2 0 2 1 1 0 1 1 1 5 4 2 3 3 4 6 7 5 2 2 1 2 2 1 2 5 2 1 6 7 3 2 1 2 5 4 4 3 1 2 3 2 3 3 3 4 1 6 1 4 6 5 3 7 9 14 17 17 17 17 16 14 14 16 18
14 13 14 16 16 16 16 15 12 10 10 10 8 4 3 6 3 3 6 6 2 1 2 2 1 1 1 2 3 3 1 1 3 3 1 3 2 3 5 8 9 5 1 0 2 2 2 3 4 4 1 8 9 6 4 2 4 6 4 4 4 2 3 4 3 4 3 2 5 4 3 1 4 1 2 8 11 14 19 20 19 19 17 16 15 14 15 17
16 15 16 17 17 17 16 16 15 13 13 13 8 3 6 6 2 2 4 4 2 2 2 2 1 2 3 4 4 3 4 2 2 3 2 3 3 3 3 4 7 5 2 1 1 2 3 4 3 3 3 9 8 7 4 3 1 3 0 2 1 3 4 3 4 4 2 3 5 4 3 3 2 4 6 10 12 14 17 17 18 17 15 15 15 14 14 15
16 16 17 17 18 18 17 17 16 15 16 13 5 4 7 4 1 3 2 1 1 2 3 1 1 3 3 3 4 4 3 2 1 1 2 4 4 5 4 2 4 7 5 3 1 1 2 3 2 4 1 5 3 2 2 1 0 1 2 1 3 3 3 1 4 2 0 3 4 3 3 4 1 3 6 8 8 9 10 11 14 14 13 14 14 13 12 12
16 16 17 18 19 18 17 18 17 17 18 12 4 6 4 2 4 4 1 1 1 2 3 2 2 3 3 3 3 4 2 1 2 2 1 3 2 4 5 3 2 6 6 4 1 2 2 2 2 3 2 4 1 3 3 1 2 3 2 2 2 3 2 1 2 1 1 5 4 4 6 6 4 2 3 7 7 7 6 7 10 11 12 13 11 11 11 12
16 16 18 20 21 18 16 18 17 18 17 9 8 8 2 2 6 6 1 3 1 2 3 3 1 1 1 2 2 3 3 0 3 4 1 2 2 2 3 1 3 4 2 1 1 2 1 2 4 3 2 2 1 3 3 3 2 3 2 0 2 0 1 1 1 2 4 6 4 4 7 7 4 2 1 6 7 7 6 5 6 7 9 10 9 10 10 9
14 13 14 17 19 17 18 18 19 20 14 6 7 8 2 2 7 8 2 3 2 2 2 2 1 2 3 2 3 1 4 4 4 4 2 3 3 1 3 2 3 6 9 6 1 2 1 1 2 1 1 1 2 2 2 3 2 3 1 1 1 3 3 2 1 2 4 6 5 5 7 6 2 2 2 4 8 8 7 5 4 5 6 7 8 9 8 8
10 6 7 10 11 14 20 20 18 16 9 4 6 5 1 2 6 9 6 2 2 2 2 1 3 2 4 4 6 5 3 4 4 3 2 2 2 2 5 5 2 3 6 4 1 2 1 3 3 1 2 1 0 2 3 2 1 2 1 2 2 1 1 1 2 3 3 5 5 6 7 4 1 3 4 6 8 7 7 6 5 6 8 9 9 9 8 7
7 2 5 9 7 14 23 20 13 10 5 5 6 4 2 2 1 5 7 6 5 5 5 3 4 6 5 6 8 6 4 5 5 4 3 3 4 1 3 4 3 2 3 2 1 2 1 2 2 2 2 1 2 1 3 2 3 3 1 2 3 2 2 3 5 3 3 4 4 6 8 4 1 3 3 6 5 6 8 8 7 9 11 10 9 8 7 6
9 3 5 9 10 20 26 15 8 8 5 6 7 6 7 5 3 6 9 10 9 8 8 6 6 7 6 6 7 4 3 3 2 3 2 3 3 0 2 3 4 3 2 2 1 1 2 1 1 4 4 5 8 4 2 2 3 3 2 2 2 0 1 4 6 3 1 2 2 4 6 2 2 2 2 5 7 10 13 13 12 13 13 11 9 8 7 6
12 7 5 8 14 26 23 7 6 7 5 8 9 9 11 7 5 8 9 9 7 6 7 6 6 8 7 6 6 5 4 3 3 4 3 2 1 3 2 3 5 4 2 1 0 1 2 2 1 4 4 6 9 5 4 4 2 1 0 1 1 1 1 3 4 1 1 3 3 5 5 2 2 2 1 6 10 13 15 15 14 15 14 12 10 9 8 6
11 10 8 8 17 28 19 4 5 8 7 9 9 9 12 10 8 8 7 8 8 6 5 5 7 8 6 5 5 5 5 4 4 4 3 2 1 5 5 4 4 2 3 1 1 1 0 0 1 1 3 4 5 2 2 5 4 2 1 2 1 2 2 2 2 2 2 4 4 4 4 2 2 3 4 6 7 8 11 12 13 13 13 12 10 9 8 6
8 8 8 12 23 28 17 7 4 5 8 10 9 10 11 9 11 12 9 8 9 8 5 5 6 7 4 3 3 4 4 3 2 2 0 1 1 4 6 6 5 4 4 4 2 2 1 1 2 2 3 3 4 3 1 1 2 1 2 3 3 4 4 3 2 3 4 2 2 4 6 4 3 5 6 6 6 5 8 12 13 12 12 11 9 8 7 5
7 6 4 10 22 26 21 13 6 3 5 8 8 9 11 8 9 13 12 9 11 11 7 4 4 3 2 3 3 4 5 3 3 2 0 2 2 2 4 7 8 6 5 4 4 3 0 1 3 5 6 6 7 6 3 1 2 4 5 6 7 6 5 4 4 5 3 3 4 8 9 8 8 10 7 3 5 6 7 11 12 10 9 8 6 5 5 4
5 4 4 8 12 16 16 15 11 5 3 6 5 6 10 10 6 9 12 9 9 11 8 5 5 3 3 5 4 5 6 5 5 5 3 2 2 3 3 5 6 5 5 4 3 3 1 2 5 7 8 8 8 9 9 8 7 7 8 10 11 9 7 7 7 6 3 4 8 11 10 9 10 11 10 6 5 7 7 9 11 9 7 6 5 4 3 3
5 4 6 10 7 7 9 12 14 11 7 6 3 3 7 10 8 7 9 7 4 6 5 4 6 8 7 6 3 3 4 5 5 4 3 2 3 3 2 2 4 5 5 3 2 3 2 3 5 5 7 9 9 10 10 9 9 9 10 12 13 12 12 11 9 7 5 7 10 10 11 12 11 11 13 9 4 2 1 5 9 8 7 6 5 3 2 3
8 7 6 7 4 4 10 14 14 13 11 7 4 4 6 8 10 7 5 5 3 4 5 5 5 7 7 5 3 3 3 2 3 2 2 2 2 2 2 1 2 4 3 2 1 2 2 3 3 3 5 8 9 9 8 7 8 10 12 14 15 16 15 12 9 8 9 10 11 11 14 15 12 8 7 4 3 5 6 7 7 7 7 7 5 3 3 4
7 5 3 4 3 1 5 11 12 10 10 8 6 6 5 6 9 5 3 4 4 4 7 7 4 2 2 3 4 3 2 3 3 1 3 3 1 1 1 1 1 2 2 1 1 2 2 1 1 1 2 6 7 6 5 5 7 9 11 13 15 16 13 11 10 9 9 11 13 13 14 13 7 2 2 3 4 5 5 4 5 6 6 5 3 1 3 4
8 5 1 3 3 2 2 5 8 6 7 8 8 7 5 6 9 5 0 2 4 3 4 5 6 4 4 3 4 3 2 6 5 3 4 4 2 1 0 0 3 3 1 1 0 1 1 1 0 1 2 6 7 3 2 4 6 8 13 17 18 15 12 11 10 9 9 12 12 12 12 9 3 2 3 5 4 4 3 4 4 4 5 4 1 3 5 5
10 9 4 2 2 5 4 3 4 6 6 7 8 8 6 7 8 7 4 0 2 2 3 8 9 5 2 4 4 3 6 9 8 6 5 4 2 2 2 1 2 4 3 2 1 1 1 1 1 1 3 6 7 2 3 1 5 8 12 15 15 14 13 13 12 12 13 12 10 9 8 5 4 5 5 4 3 3 3 4 4 2 1 1 3 5 6 5
Wind_Direction
222 224 217 217 219 232 231 234 235 236 238 241 246 249 257 264 270 276 279 285 291 296 300 306 309 313 316 317 320 321 322 321 317 311 307 312 294 274 299 320 315 304 286 264 264 264 263 275 257 243 252 260 255 232 245 245 222 232 235 221 247 246 259 330 334 326 345 335 336 324 327 332 318 306 268 266 264 270 283 285 281 274 268 271 281 280 273 279
236 238 243 247 248 252 253 252 253 253 247 248 248 249 254 257 263 267 273 279 282 288 292 297 301 304 309 311 314 316 319 318 312 310 313 313 271 229 341 341 329 313 300 277 275 266 228 259 238 226 231 243 242 219 232 234 202 214 236 242 250 251 282 311 312 316 335 323 316 314 319 325 322 319 306 286 278 286 288 284 286 282 276 277 280 274 266 271
241 242 246 248 249 252 254 256 255 256 256 257 255 255 258 258 261 265 270 273 276 282 286 291 295 299 303 305 310 313 318 317 313 317 331 25 139 122 359 345 342 318 305 284 267 226 205 248 239 223 231 241 237 212 213 206 194 215 221 245 249 260 289 298 306 313 317 319 322 314 318 320 308 303 293 278 280 284 275 276 284 283 281 284 291 288 271 269
248 248 250 250 252 253 253 256 256 257 258 260 262 263 264 265 267 270 272 274 277 280 283 287 290 295 298 302 308 312 319 318 309 299 5 129 127 349 322 329 338 327 305 277 245 211 220 245 232 227 241 253 251 232 207 199 199 207 204 227 262 285 300 295 302 307 309 321 323 308 311 307 301 299 285 276 283 265 257 268 277 279 285 293 300 305 292 282
248 249 251 252 254 255 256 258 259 261 263 265 267 268 269 271 272 274 275 277 279 281 284 286 289 293 296 302 306 314 325 325 286 163 193 162 254 306 308 311 319 319 297 275 248 218 222 231 225 239 246 260 265 249 226 217 215 226 239 249 262 277 283 281 290 299 306 310 299 295 298 299 303 297 280 269 262 252 262 273 279 281 286 291 292 294 289 284
249 250 252 255 256 258 259 261 263 265 268 269 270 272 273 273 274 276 277 279 281 283 286 287 291 294 297 303 306 314 319 289 296 314 281 276 289 296 296 295 303 305 273 257 240 224 227 223 222 237 238 247 260 252 252 241 226 226 251 254 263 271 273 281 288 293 301 303 290 285 286 293 295 287 280 267 256 263 270 277 281 283 285 288 288 287 283 280
254 255 256 259 260 262 262 264 266 267 269 270 272 273 274 274 275 276 277 279 281 283 285 288 291 292 297 301 303 310 291 270 287 289 278 286 290 291 291 289 294 280 241 242 225 215 229 221 221 239 245 246 253 252 262 266 254 243 249 261 271 275 275 281 287 287 291 290 280 280 282 281 277 281 286 273 265 271 275 277 278 280 284 286 286 284 281 279
258 259 260 262 263 265 265 267 268 269 270 271 272 273 274 275 275 276 277 278 280 282 284 286 289 291 295 297 304 307 273 271 282 280 279 286 287 291 290 283 279 252 236 240 221 209 229 233 236 246 254 253 260 273 288 298 278 257 259 270 272 273 277 284 289 286 282 280 277 273 269 268 271 281 283 275 275 278 278 279 278 278 279 279 281 282 280 278
261 263 264 266 267 268 269 270 270 271 272 272 273 273 275 276 276 278 278 280 281 283 285 286 287 289 292 293 302 295 272 274 276 273 277 280 283 288 286 275 266 248 237 233 220 213 228 239 249 258 278 281 279 290 297 298 265 258 282 299 298 295 293 293 291 286 279 276 272 257 257 267 275 285 278 274 278 282 281 279 280 282 278 276 277 279 279 278
267 268 270 272 274 275 276 278 277 278 278 277 278 278 280 281 282 283 283 285 285 285 286 286 286 286 286 287 283 269 278 281 272 270 273 274 280 281 278 273 266 255 238 232 223 218 232 246 262 278 299 296 289 288 283 272 264 288 312 313 306 299 291 283 277 275 272 270 265 250 253 267 275 286 274 277 281 280 278 275 278 281 278 276 277 280 281 278
271 272 275 277 280 282 284 284 285 285 285 285 286 286 287 288 289 290 290 290 288 288 288 286 287 284 282 278 243 244 274 276 270 274 274 277 282 280 276 271 271 265 240 234 233 228 234 247 261 273 286 291 293 286 278 270 274 305 332 316 295 290 284 276 268 269 266 263 256 240 247 270 276 264 253 275 289 285 276 273 273 273 274 277 280 283 282 280
270 272 275 277 280 283 284 285 286 287 289 289 290 291 293 294 295 295 294 294 292 291 289 287 287 283 283 271 250 257 272 271 271 275 275 280 282 281 278 271 268 259 235 230 237 238 235 241 250 250 260 282 307 290 280 297 300 316 333 305 286 283 276 271 265 261 259 256 238 202 220 272 262 242 249 269 286 284 275 269 269 270 272 276 280 283 284 283
268 270 273 276 278 280 281 282 284 287 289 291 293 294 296 297 298 298 297 296 294 292 289 286 283 282 278 266 266 275 280 274 274 274 273 276 277 278 277 271 263 252 239 231 232 238 236 239 248 248 261 277 289 280 287 304 300 287 269 261 282 287 271 273 270 255 254 239 186 147 115 253 250 261 266 279 284 286 287 282 281 278 275 276 278 282 284 285
268 270 274 276 277 277 278 279 283 286 290 293 296 298 301 303 301 301 300 298 297 294 289 284 282 280 266 265 280 284 278 276 271 267 271 272 272 275 275 271 260 248 239 236 236 238 240 246 252 255 263 267 269 279 298 298 285 269 262 246 259 277 269 278 278 246 221 145 143 134 254 246 274 276 280 294 293 297 297 291 286 279 277 278 278 282 284 286
270 273 274 274 273 275 277 279 284 288 293 297 300 304 306 307 306 305 304 302 300 296 292 286 281 274 264 276 285 279 270 270 264 266 273 270 270 274 272 269 259 245 236 238 242 242 247 256 256 255 266 265 263 276 297 290 270 258 265 265 224 245 264 276 281 211 163 160 141 131 263 242 249 272 293 307 301 298 294 288 283 277 277 280 283 285 286 288
271 272 269 270 270 273 277 281 286 292 299 303 306 309 310 310 310 307 305 302 299 296 291 282 275 260 258 279 280 274 272 266 270 275 269 266 270 270 271 276 268 248 237 237 244 246 250 254 248 252 265 269 250 250 284 284 273 243 235 266 248 253 263 269 294 205 151 137 172 177 231 247 246 281 290 287 283 282 281 278 275 274 278 283 287 289 290 291
267 266 263 264 265 267 271 277 287 295 300 307 309 311 313 314 311 306 303 299 294 289 278 267 266 264 260 267 270 268 270 277 288 280 262 275 277 269 276 280 262 248 237 237 244 238 234 225 214 237 245 250 259 257 284 270 260 254 235 255 250 263 286 289 315 313 139 141 211 217 224 243 248 260 266 270 276 275 270 268 269 275 284 285 288 294 302 319
256 254 253 253 256 259 264 274 284 291 301 309 312 316 319 318 313 306 297 288 280 276 273 239 203 254 259 257 269 268 268 278 285 281 277 280 280 275 265 240 227 218 185 213 233 204 194 204 194 216 234 223 247 239 242 245 248 275 275 285 287 287 304 298 297 321 314 269 259 252 244 253 265 269 275 280 282 277 269 270 276 287 290 290 296 315 20 63
248 244 242 245 249 255 261 272 281 291 303 311 319 321 321 322 315 306 290 261 236 236 282 200 184 228 279 276 283 273 273 279 279 279 278 275 272 252 216 202 191 183 172 171 201 184 172 184 183 190 241 222 226 214 223 242 251 271 277 284 292 285 291 290 284 294 298 285 276 275 275 283 292 294 290 282 276 270 268 273 282 286 286 297 341 47 71 71
243 239 237 241 245 254 262 272 285 298 307 316 331 334 334 339 325 316 313 269 252 256 276 255 233 255 274 284 286 274 274 281 278 274 276 273 253 213 195 182 177 191 212 187 173 178 170 173 200 196 224 232 240 236 238 250 255 270 277 274 279 278 279 287 287 284 285 285 279 288 296 300 297 289 278 274 272 270 271 273 273 277 294 16 60 74 77 71
239 237 237 244 248 258 267 278 291 306 318 325 345 354 345 342 322 306 321 297 278 270 270 266 260 259 266 276 278 272 274 284 278 265 269 252 186 180 177 170 171 193 226 214 164 140 167 195 225 211 224 235 247 257 263 272 276 283 284 279 278 276 279 281 281 281 283 286 284 295 294 293 291 281 273 274 275 271 269 267 265 279 44 59 68 75 74 69
238 235 237 244 249 261 274 288 297 306 321 327 343 350 316 317 306 298 313 296 284 280 266 265 266 261 263 265 261 263 267 277 261 244 256 223 174 179 175 172 194 199 214 211 158 100 187 231 235 226 230 240 249 259 267 271 274 279 279 282 281 276 283 275 267 275 291 78 301 304 295 291 285 275 273 275 272 266 265 267 56 74 70 63 68 72 67 65
241 241 243 247 253 267 280 292 298 302 312 319 329 326 313 321 316 310 309 276 283 289 273 262 259 255 255 251 250 257 256 257 251 235 234 194 171 189 185 180 219 224 222 203 182 195 206 224 232 223 227 240 249 252 260 263 255 251 256 268 272 270 276 269 276 313 353 342 300 300 295 288 281 273 275 272 262 270 293 78 78 79 76 69 69 69 67 67
246 248 253 260 264 270 283 294 297 299 303 313 321 317 324 331 329 333 319 264 275 283 265 251 243 242 239 231 244 255 242 243 249 210 187 175 173 188 200 211 226 232 238 213 211 226 232 258 259 206 218 236 250 258 260 263 261 250 242 247 261 266 267 272 325 345 345 326 302 308 299 270 269 272 282 268 252 335 67 78 74 73 76 74 71 68 69 71
249 250 258 270 269 269 285 300 306 309 310 326 338 332 350 340 337 346 331 270 260 254 250 242 230 238 235 230 237 234 218 222 206 169 169 180 187 172 197 220 216 230 240 229 231 237 247 264 254 208 230 244 250 261 257 258 276 268 251 258 280 295 303 317 350 2 354 315 301 24 356 266 285 312 310 291 281 53 66 72 65 62 66 68 69 68 71 75
255 257 263 272 271 270 286 302 307 349 358 358 357 358 351 351 345 346 341 275 257 211 212 214 207 216 209 212 197 169 173 203 199 200 194 199 197 181 193 200 193 242 258 252 259 259 253 242 155 113 262 262 261 265 263 257 269 269 266 331 347 6 13 5 6 11 332 267 273 0 347 262 279 295 273 272 299 80 69 68 68 65 63 64 67 69 71 73
264 268 269 268 265 256 258 255 222 206 221 245 340 9 327 353 2 355 352 271 260 147 128 158 176 184 180 185 171 158 159 166 174 208 212 207 195 199 235 158 161 240 244 32 3 292 221 181 95 63 236 246 253 258 258 232 233 253 285 1 13 27 9 348 348 282 247 273 281 252 226 256 269 244 248 247 123 95 82 74 74 73 72 73 73 72 73 72
262 267 266 260 256 248 239 233 219 209 206 212 245 268 312 347 353 3 328 277 277 115 126 136 156 196 189 170 171 169 139 148 150 204 200 192 175 183 230 228 285 270 153 148 184 254 224 181 170 162 177 214 225 241 271 228 215 228 239 12 16 15 301 279 256 252 265 300 285 227 198 242 272 246 248 224 122 103 99 93 79 76 77 80 80 78 78 76
256 263 263 254 252 248 236 226 215 210 211 209 218 213 147 268 315 14 250 257 320 107 147 143 142 177 167 160 186 203 184 158 159 165 163 176 177 175 226 254 309 314 183 182 208 245 333 121 170 170 178 217 213 218 318 304 203 209 230 317 313 255 237 236 240 255 290 281 257 231 192 202 287 269 262 122 117 121 109 103 88 83 82 81 83 83 83 83
258 265 260 247 242 238 229 224 215 208 212 212 206 196 179 240 251 179 207 223 352 69 130 147 133 159 168 173 193 197 194 150 117 134 129 162 187 199 267 296 328 327 251 231 247 254 193 91 59 216 223 224 157 132 34 40 138 174 294 326 313 269 229 208 216 201 309 268 252 248 204 184 279 292 335 71 128 145 132 131 117 99 94 91 89 90 92 92
258 258 245 232 228 226 227 230 222 206 202 205 202 188 191 223 191 211 216 249 343 80 129 149 125 163 187 202 186 192 190 138 137 151 151 150 179 203 254 300 28 346 307 292 268 260 208 140 220 226 230 219 128 121 42 57 82 89 24 343 336 306 231 122 95 113 237 251 273 303 199 176 214 284 55 68 115 145 147 151 141 122 110 102 97 94 93 95
243 236 226 225 227 226 226 228 220 204 198 201 196 174 137 212 226 214 192 37 344 193 142 143 166 188 197 156 72 186 177 148 162 183 199 171 176 197 203 199 160 152 265 237 278 278 206 209 209 194 227 205 156 113 333 50 90 123 158 143 12 315 323 105 222 177 211 238 247 25 51 151 223 275 288 72 77 99 119 130 134 129 121 112 104 98 92 91
228 226 228 231 231 229 226 223 215 201 198 197 182 156 127 224 223 186 171 196 234 147 83 58 11 213 133 62 62 100 25 163 169 189 220 172 195 217 203 206 204 209 235 232 354 311 277 256 189 142 310 198 175 154 186 233 173 166 173 163 168 243 288 268 253 245 245 257 248 47 40 9 228 288 298 90 78 67 86 105 117 119 116 109 103 97 91 87
230 231 233 233 232 231 226 221 215 205 198 184 160 136 206 223 214 153 184 204 205 114 98 59 25 243 208 224 213 155 159 258 160 160 200 162 195 234 210 210 214 212 189 48 328 221 254 306 183 170 191 173 180 202 192 131 162 193 194 158 165 198 239 256 261 262 269 282 271 286 349 232 187 268 26 87 86 80 86 97 104 105 106 105 101 95 90 86
231 231 233 233 231 229 223 219 215 205 192 177 154 160 216 216 187 157 200 210 183 150 115 64 108 221 236 227 227 189 166 191 162 152 205 202 217 230 207 210 202 178 121 171 249 185 221 259 185 141 142 158 179 228 205 98 142 225 38 90 183 213 206 253 270 255 279 307 278 265 261 242 170 110 95 90 86 85 89 95 98 98 102 101 97 92 89 90
233 230 232 233 232 230 223 218 215 203 187 172 163 218 217 220 188 169 184 219 180 135 123 133 177 211 243 236 242 230 166 154 162 137 214 217 239 240 233 253 184 170 159 167 231 231 222 252 119 75 57 180 191 279 220 194 170 60 59 151 242 235 155 220 279 271 201 271 260 240 263 283 311 108 107 99 91 89 88 89 92 94 98 95 90 91 93 95
235 234 235 235 234 231 219 213 211 200 188 178 200 229 211 229 235 222 144 88 1 76 130 194 193 187 231 233 212 193 135 65 156 148 241 214 232 238 226 249 162 170 191 186 249 280 237 279 226 174 234 232 230 4 329 300 92 114 198 218 271 332 62 146 262 298 241 256 254 245 270 279 269 252 127 120 110 98 89 83 85 85 85 84 86 93 98 97
237 241 244 242 238 229 212 208 204 195 191 194 223 229 210 182 227 242 148 116 42 65 138 211 207 101 263 244 216 165 126 72 170 162 226 220 213 196 189 248 54 59 22 117 184 276 131 301 268 217 216 216 94 30 327 326 54 125 183 137 93 322 300 194 192 213 236 256 257 247 264 266 253 275 163 155 138 116 110 97 82 77 81 88 96 104 107 106
242 246 253 252 243 223 205 201 198 194 197 213 226 226 221 200 242 260 242 120 75 79 123 220 197 4 325 290 298 254 160 185 197 184 188 198 218 159 88 30 50 45 31 54 104 302 104 215 280 6 49 71 63 80 201 268 355 83 80 326 141 178 215 208 208 225 231 255 264 253 262 264 256 328 333 138 130 125 126 114 102 109 118 124 127 127 131 133
237 240 257 253 242 213 198 193 194 200 207 224 220 218 191 202 248 257 241 174 118 150 187 193 162 230 274 271 284 280 207 206 221 221 217 223 267 48 51 29 48 53 30 51 74 347 0 234 249 349 14 31 119 173 180 234 303 84 57 269 235 224 258 298 271 242 226 252 265 257 258 254 254 345 20 85 101 113 126 128 137 150 154 159 158 156 160 159
209 220 247 233 219 191 185 183 193 209 222 229 221 216 208 188 211 245 237 229 226 214 214 208 197 214 231 245 254 251 239 242 233 228 232 234 250 328 40 21 31 30 23 58 59 10 332 263 258 292 303 248 225 177 120 142 146 114 91 246 259 287 341 298 266 237 218 239 250 259 261 247 236 316 46 87 90 103 126 139 155 169 173 175 176 178 183 180
188 205 229 218 199 179 177 180 200 207 219 230 222 210 199 175 162 218 220 217 222 224 220 219 221 225 226 237 248 247 250 254 225 225 235 234 247 350 44 39 51 39 39 84 73 43 91 93 285 273 267 263 275 293 64 137 161 149 184 210 241 268 167 255 261 259 272 274 287 271 260 229 214 280 69 117 139 149 158 163 171 184 190 191 197 199 194 191
194 203 204 213 191 176 175 190 214 203 230 235 228 221 209 194 199 221 212 203 208 216 217 215 218 226 230 234 242 248 245 231 211 231 243 254 324 68 65 57 65 42 18 91 129 51 82 93 239 264 278 289 286 296 37 36 65 118 249 100 105 157 195 239 244 228 247 268 277 265 258 260 239 255 176 150 156 162 172 175 177 186 193 199 206 204 199 197
205 203 200 208 185 177 180 210 205 203 225 225 225 226 224 226 227 226 219 204 201 204 216 223 221 223 228 233 238 238 235 233 234 240 241 238 113 75 58 42 58 32 14 60 196 214 208 154 125 235 298 305 289 286 31 20 36 64 332 322 307 259 254 242 222 206 215 228 238 245 257 273 208 209 210 184 169 169 178 182 184 187 193 202 204 198 197 193
205 203 199 196 183 183 200 230 211 218 219 213 222 222 223 233 227 227 238 225 210 208 216 227 226 226 229 239 253 248 240 251 253 262 23 155 114 73 55 50 70 77 65 82 107 125 203 222 144 180 246 251 259 263 175 91 57 58 254 269 276 260 251 266 277 255 250 262 296 270 264 269 228 215 214 197 189 194 191 192 195 196 197 200 198 194 192 188
204 205 188 185 188 198 219 233 235 268 223 209 223 221 219 230 224 217 222 233 235 229 229 240 231 234 245 231 242 250 243 237 223 232 216 137 121 75 61 66 81 95 93 88 77 77 113 252 197 207 232 242 256 271 277 302 300 279 277 276 271 262 252 258 257 252 273 321 288 258 260 274 275 268 263 207 188 212 214 202 198 197 198 196 195 201 203 207
206 218 187 173 191 210 226 232 226 236 251 228 220 211 216 227 231 206 199 214 238 229 227 239 217 202 212 212 222 240 239 233 226 228 226 187 132 107 108 91 92 108 114 107 96 101 138 243 223 218 234 243 253 269 283 291 281 269 275 272 266 261 245 234 241 254 308 310 268 265 275 281 278 283 293 292 254 255 251 213 193 185 182 183 185 199 223 245
205 272 211 179 184 209 213 220 218 217 241 253 245 233 224 221 223 211 193 195 224 219 212 221 217 218 224 217 203 214 229 236 229 217 196 169 126 109 126 112 112 130 126 119 132 121 137 243 242 238 249 253 258 262 265 273 277 275 273 271 270 265 251 244 243 238 240 251 260 274 281 277 277 283 290 298 304 293 220 172 169 162 158 167 181 202 246 283
225 284 258 196 198 215 204 206 205 210 229 241 244 251 242 228 227 220 174 165 200 214 205 214 220 217 220 211 174 185 222 225 218 200 114 101 98 110 131 110 131 148 133 98 179 174 177 241 241 248 266 264 263 264 263 267 274 272 269 268 268 264 260 262 258 241 239 251 262 271 274 275 280 286 289 320 49 85 101 120 141 153 164 178 191 216 262 288
237 270 284 253 264 265 205 201 187 196 224 227 231 240 236 238 239 225 148 162 184 196 210 219 208 144 126 142 155 188 198 139 146 147 103 101 83 116 166 236 133 137 115 71 292 260 242 218 158 99 293 274 266 266 265 259 260 267 270 266 263 264 269 271 265 258 256 260 263 267 270 273 284 352 87 115 110 109 109 120 143 156 158 162 171 248 285 292
246 238 308 318 260 176 161 201 184 188 217 218 224 230 214 227 240 239 178 178 178 181 195 179 151 104 78 122 165 213 172 131 138 146 134 146 182 170 221 100 112 123 141 127 333 299 272 255 329 56 267 266 273 288 286 274 280 278 268 261 258 261 265 262 260 261 260 263 267 268 267 264 256 106 134 145 124 113 109 89 90 115 119 115 129 291 293 294
246 238 245 321 264 196 175 181 195 200 210 213 218 222 219 229 237 233 236 168 113 105 105 131 141 135 134 164 165 145 129 123 122 125 129 143 168 196 227 217 158 160 161 143 145 189 173 179 290 266 250 267 278 307 79 21 288 268 256 254 253 254 257 259 261 258 254 256 261 260 258 238 182 168 173 153 104 72 64 54 45 50 106 218 254 274 292 298
Height
1540 1540 1540 1541 1541 1541 1541 1541 1541 1541 1541 1541 1541 1541 1541 1541 1541 1541 1541 1541 1541 1540 1540 1540 1540 1539 1539 1538 1538 1537 1536 1535 1534 1533 1531 1531 1532 1532 1532 1532 1532 1532 1532 1532 1532 1533 1533 1533 1534 1534 1535 1534 1535 1535 1535 1535 1536 1537 1537 1540 1540 1535 1530 1524 1521 1521 1520 1520 1519 1518 1518 1519 1520 1520 1520 1520 1519 1518 1516 1514 1514 1515 1513 1511 1510 1511 1511 1510
1540 1540 1540 1540 1540 1540 1541 1541 1541 1541 1541 1541 1541 1541 1541 1541 1541 1541 1540 1540 1540 1540 1540 1539 1539 1539 1538 1538 1537 1537 1535 1534 1533 1531 1530 1529 1530 1531 1532 1532 1532 1531 1531 1532 1532 1532 1533 1534 1534 1535 1535 1535 1534 1534 1535 1535 1535 1536 1536 1538 1536 1530 1525 1520 1520 1519 1518 1520 1519 1518 1519 1519 1520 1520 1520 1520 1518 1518 1517 1512 1512 1513 1511 1510 1509 1508 1507 1507
1539 1539 1539 1540 1540 1540 1540 1540 1540 1540 1540 1540 1540 1540 1540 1540 1540 1540 1540 1540 1539 1539 1539 1539 1538 1538 1538 1537 1537 1536 1535 1533 1532 1530 1529 1529 1529 1531 1532 1531 1531 1531 1531 1531 1532 1532 1534 1535 1535 1535 1535 1535 1534 1534 1534 1534 1534 1534 1535 1537 1532 1526 1523 1520 1519 1519 1519 1519 1518 1519 1519 1519 1520 1520 1520 1519 1518 1518 1516 1512 1510 1510 1509 1509 1508 1507 1506 1506
1538 1539 1539 1539 1539 1539 1539 1539 1539 1539 1539 1539 1539 1539 1539 1539 1539 1539 1539 1539 1539 1538 1538 1538 1537 1537 1537 1536 1536 1536 1535 1532 1530 1530 1530 1530 1530 1531 1531 1531 1531 1531 1531 1531 1531 1532 1533 1534 1535 1535 1535 1534 1533 1533 1532 1533 1532 1531 1532 1533 1528 1524 1523 1521 1520 1519 1518 1518 1518 1519 1519 1519 1519 1519 1518 1517 1518 1517 1514 1511 1510 1509 1508 1508 1507 1507 1506 1505
1538 1538 1538 1538 1538 1538 1538 1538 1538 1538 1538 1538 1538 1538 1538 1538 1538 1538 1538 1538 1538 1538 1537 1537 1536 1536 1536 1535 1535 1535 1535 1533 1530 1530 1530 1530 1530 1531 1531 1530 1530 1530 1531 1531 1531 1532 1532 1533 1534 1535 1535 1533 1532 1532 1530 1530 1530 1529 1527 1527 1524 1524 1523 1521 1520 1519 1518 1518 1518 1518 1519 1519 1517 1517 1516 1517 1517 1514 1511 1510 1509 1507 1506 1506 1505 1505 1504 1503
1537 1537 1537 1537 1537 1537 1537 1537 1537 1537 1537 1537 1537 1537 1537 1537 1537 1537 1537 1537 1537 1536 1536 1536 1535 1535 1535 1534 1534 1534 1536 1534 1530 1530 1530 1530 1530 1530 1530 1530 1530 1530 1530 1530 1530 1531 1532 1533 1534 1534 1533 1532 1531 1530 1528 1527 1527 1527 1525 1523 1523 1523 1522 1519 1519 1519 1518 1518 1518 1518 1518 1517 1516 1515 1514 1515 1512 1509 1509 1508 1506 1504 1503 1503 1503 1503 1501 1500
1536 1536 1536 1536 1536 1536 1536 1536 1536 1536 1536 1536 1536 1536 1536 1536 1536 1536 1536 1536 1535 1535 1535 1535 1534 1534 1534 1533 1533 1533 1534 1531 1529 1530 1530 1529 1529 1529 1529 1529 1529 1529 1529 1530 1530 1531 1531 1532 1533 1532 1532 1531 1530 1528 1526 1525 1525 1525 1523 1522 1522 1522 1520 1519 1518 1517 1517 1517 1517 1518 1517 1516 1515 1514 1512 1511 1508 1506 1507 1506 1503 1501 1501 1501 1500 1500 1499 1497
1535 1535 1535 1535 1535 1535 1535 1535 1535 1536 1535 1535 1535 1535 1535 1535 1535 1535 1535 1535 1534 1534 1534 1533 1533 1533 1533 1532 1532 1532 1532 1529 1528 1529 1529 1528 1528 1527 1528 1528 1528 1528 1529 1529 1530 1531 1531 1532 1532 1532 1531 1529 1528 1526 1525 1525 1524 1523 1522 1521 1520 1520 1519 1518 1517 1516 1516 1515 1516 1516 1515 1514 1514 1514 1510 1506 1504 1504 1503 1502 1500 1499 1498 1498 1497 1496 1496 1495
1534 1534 1534 1534 1534 1534 1535 1535 1535 1535 1534 1534 1534 1534 1534 1534 1534 1534 1534 1533 1533 1533 1532 1532 1532 1531 1531 1531 1532 1531 1528 1527 1527 1527 1527 1528 1527 1527 1527 1527 1528 1528 1528 1529 1529 1530 1531 1531 1531 1531 1529 1527 1526 1526 1525 1526 1525 1521 1521 1521 1519 1519 1518 1518 1516 1515 1515 1514 1514 1514 1513 1512 1513 1514 1507 1501 1502 1501 1499 1499 1497 1496 1496 1495 1494 1493 1493 1492
1532 1532 1533 1533 1533 1533 1534 1534 1534 1534 1534 1533 1533 1533 1533 1533 1533 1532 1532 1532 1532 1531 1531 1531 1530 1530 1530 1530 1531 1529 1526 1526 1527 1526 1527 1527 1526 1526 1526 1527 1527 1527 1527 1528 1528 1529 1530 1530 1529 1529 1529 1527 1526 1525 1525 1526 1524 1520 1521 1520 1519 1519 1518 1517 1515 1512 1512 1511 1511 1512 1511 1509 1511 1514 1506 1498 1499 1499 1497 1496 1495 1495 1493 1492 1492 1491 1491 1490
1531 1531 1531 1532 1532 1532 1532 1532 1532 1532 1532 1532 1532 1532 1531 1531 1531 1531 1531 1530 1530 1530 1529 1529 1528 1528 1528 1528 1529 1527 1524 1525 1526 1525 1526 1525 1525 1525 1525 1526 1526 1527 1527 1527 1528 1529 1529 1529 1528 1529 1528 1527 1526 1524 1523 1523 1522 1520 1521 1521 1519 1520 1516 1513 1512 1509 1509 1508 1507 1508 1509 1508 1509 1511 1504 1496 1496 1497 1496 1494 1493 1493 1491 1490 1489 1488 1488 1488
1529 1529 1530 1530 1530 1530 1531 1531 1530 1531 1530 1530 1530 1530 1530 1530 1530 1529 1529 1529 1528 1528 1528 1527 1527 1527 1526 1526 1524 1523 1523 1524 1524 1524 1524 1523 1523 1523 1524 1525 1525 1526 1526 1527 1528 1528 1528 1527 1527 1528 1527 1526 1525 1524 1522 1521 1521 1521 1522 1523 1519 1517 1514 1509 1508 1506 1504 1504 1503 1506 1511 1511 1508 1505 1499 1495 1495 1495 1493 1492 1490 1490 1488 1487 1486 1485 1485 1485
1527 1527 1528 1528 1528 1529 1529 1529 1529 1529 1529 1529 1528 1528 1529 1528 1528 1528 1528 1527 1527 1527 1526 1526 1525 1525 1525 1523 1520 1520 1522 1522 1522 1522 1522 1522 1521 1521 1522 1523 1523 1524 1525 1526 1526 1526 1527 1527 1527 1528 1527 1527 1525 1524 1522 1520 1521 1521 1521 1522 1519 1518 1513 1505 1503 1501 1500 1502 1501 1506 1515 1512 1504 1500 1496 1495 1495 1493 1492 1490 1489 1488 1486 1484 1484 1483 1483 1484
1525 1526 1526 1526 1526 1527 1527 1527 1527 1527 1527 1527 1527 1527 1527 1527 1527 1526 1526 1526 1525 1525 1525 1524 1524 1524 1523 1520 1518 1519 1520 1520 1521 1520 1520 1520 1519 1520 1520 1521 1522 1523 1524 1524 1524 1525 1526 1526 1527 1527 1527 1527 1524 1523 1522 1521 1521 1520 1519 1520 1519 1522 1515 1503 1500 1498 1499 1503 1501 1505 1515 1511 1502 1498 1496 1495 1494 1492 1491 1489 1487 1485 1483 1481 1481 1482 1482 1482
1524 1524 1524 1524 1524 1525 1525 1525 1525 1525 1526 1526 1525 1525 1525 1525 1525 1525 1525 1524 1524 1524 1523 1523 1523 1523 1522 1518 1517 1518 1518 1518 1518 1517 1518 1518 1518 1518 1518 1519 1520 1521 1522 1523 1523 1524 1525 1526 1527 1527 1526 1525 1525 1525 1524 1523 1521 1518 1522 1522 1518 1520 1514 1502 1498 1496 1498 1503 1502 1506 1513 1509 1501 1497 1495 1494 1493 1492 1490 1488 1485 1482 1480 1479 1479 1480 1480 1480
1522 1522 1523 1523 1523 1524 1524 1524 1524 1524 1525 1524 1524 1524 1524 1524 1524 1524 1523 1523 1523 1522 1522 1522 1521 1522 1521 1517 1515 1516 1516 1516 1516 1516 1517 1516 1517 1516 1516 1518 1518 1519 1521 1521 1522 1523 1524 1525 1526 1526 1526 1525 1525 1526 1526 1527 1523 1518 1521 1523 1518 1516 1512 1504 1498 1494 1497 1501 1502 1504 1507 1504 1499 1496 1495 1494 1492 1490 1488 1485 1480 1479 1479 1478 1478 1478 1479 1479
1521 1522 1522 1522 1522 1522 1523 1523 1523 1524 1524 1524 1524 1523 1523 1523 1522 1522 1522 1521 1521 1520 1521 1520 1520 1521 1519 1515 1515 1515 1514 1515 1515 1515 1515 1515 1516 1516 1516 1517 1517 1518 1519 1520 1521 1522 1523 1524 1525 1525 1525 1525 1524 1525 1530 1534 1528 1520 1517 1517 1514 1511 1509 1507 1502 1496 1496 1500 1501 1502 1502 1501 1497 1494 1494 1492 1490 1488 1485 1481 1477 1477 1479 1477 1476 1477 1478 1477
1520 1521 1521 1521 1521 1522 1522 1522 1523 1523 1523 1523 1523 1523 1522 1522 1521 1521 1520 1520 1520 1519 1520 1519 1520 1521 1518 1513 1514 1513 1513 1514 1514 1514 1514 1514 1515 1515 1516 1517 1517 1518 1519 1520 1520 1520 1522 1522 1523 1524 1524 1524 1524 1526 1533 1532 1525 1520 1517 1516 1514 1510 1509 1509 1505 1500 1497 1498 1499 1500 1500 1497 1494 1492 1492 1489 1487 1486 1482 1477 1476 1478 1478 1477 1477 1478 1477 1476
1520 1520 1520 1520 1521 1521 1521 1521 1522 1522 1522 1522 1522 1522 1521 1520 1519 1519 1518 1519 1518 1518 1518 1517 1517 1518 1515 1512 1512 1512 1511 1512 1512 1512 1512 1513 1514 1514 1515 1516 1517 1518 1519 1519 1519 1519 1521 1522 1524 1526 1525 1523 1521 1522 1524 1521 1516 1515 1514 1514 1515 1513 1510 1507 1503 1500 1498 1498 1498 1498 1497 1494 1492 1492 1489 1486 1484 1482 1478 1476 1477 1477 1477 1477 1478 1478 1477 1476
1519 1520 1520 1520 1520 1520 1521 1521 1521 1521 1522 1521 1521 1521 1520 1519 1519 1518 1518 1517 1517 1515 1515 1515 1515 1513 1511 1511 1511 1510 1510 1510 1510 1510 1510 1511 1512 1513 1514 1516 1516 1517 1518 1518 1518 1518 1519 1523 1525 1525 1524 1519 1516 1514 1512 1511 1510 1510 1511 1512 1511 1512 1510 1505 1501 1498 1496 1498 1497 1495 1495 1493 1492 1491 1486 1482 1480 1478 1476 1476 1476 1476 1478 1479 1479 1479 1478 1479
1518 1519 1519 1520 1520 1520 1521 1521 1521 1521 1521 1521 1521 1521 1520 1520 1520 1519 1518 1516 1515 1514 1513 1513 1513 1511 1510 1510 1510 1508 1509 1509 1509 1508 1509 1510 1511 1512 1513 1514 1516 1517 1516 1515 1517 1517 1518 1523 1523 1519 1516 1513 1511 1509 1508 1507 1507 1509 1510 1511 1511 1510 1508 1503 1500 1497 1495 1497 1497 1494 1495 1495 1492 1489 1482 1477 1478 1477 1474 1474 1474 1476 1479 1480 1480 1480 1480 1481
1517 1518 1518 1519 1519 1520 1520 1520 1520 1520 1520 1520 1520 1521 1521 1521 1521 1520 1519 1515 1512 1511 1511 1509 1509 1508 1508 1509 1507 1507 1508 1508 1508 1507 1508 1510 1511 1512 1512 1512 1514 1515 1513 1513 1516 1519 1521 1522 1517 1512 1511 1509 1508 1507 1507 1507 1507 1509 1510 1512 1513 1511 1506 1502 1497 1494 1494 1498 1498 1495 1496 1495 1489 1483 1477 1474 1475 1474 1471 1472 1474 1477 1479 1480 1481 1481 1482 1482
1516 1517 1518 1518 1518 1519 1519 1519 1520 1519 1520 1520 1520 1520 1520 1520 1520 1519 1519 1516 1510 1507 1506 1505 1505 1504 1505 1506 1504 1505 1506 1506 1507 1506 1506 1509 1509 1510 1511 1511 1512 1511 1510 1511 1515 1519 1521 1517 1508 1506 1507 1508 1507 1507 1506 1506 1506 1509 1511 1513 1514 1509 1508 1506 1499 1495 1496 1498 1498 1496 1496 1494 1487 1479 1474 1472 1472 1471 1471 1474 1476 1478 1480 1482 1483 1482 1483 1484
1515 1516 1517 1517 1518 1518 1518 1519 1519 1519 1519 1519 1519 1520 1520 1520 1520 1518 1517 1515 1508 1504 1502 1501 1501 1501 1502 1503 1502 1503 1504 1504 1505 1504 1505 1507 1508 1509 1509 1509 1510 1510 1509 1508 1510 1513 1512 1507 1503 1504 1505 1506 1507 1507 1506 1507 1508 1508 1508 1510 1510 1506 1505 1506 1502 1499 1499 1498 1497 1496 1499 1494 1484 1478 1474 1470 1470 1473 1475 1477 1480 1481 1482 1483 1483 1484 1485 1485
1514 1515 1516 1516 1517 1517 1518 1519 1518 1519 1519 1518 1519 1519 1519 1520 1519 1518 1517 1514 1508 1501 1498 1498 1499 1499 1500 1500 1501 1501 1503 1503 1503 1504 1505 1506 1507 1507 1507 1507 1508 1509 1507 1506 1507 1508 1506 1504 1503 1504 1505 1505 1507 1508 1506 1508 1511 1509 1506 1505 1505 1504 1504 1504 1503 1504 1507 1507 1499 1498 1509 1501 1481 1477 1477 1470 1471 1478 1479 1480 1484 1486 1485 1485 1485 1487 1488 1487
1513 1514 1514 1515 1516 1516 1518 1518 1518 1519 1518 1519 1519 1519 1520 1519 1519 1519 1517 1516 1510 1498 1496 1498 1498 1498 1499 1499 1500 1501 1503 1503 1502 1503 1504 1505 1505 1506 1506 1506 1506 1507 1506 1504 1506 1505 1503 1502 1503 1505 1506 1506 1509 1509 1506 1507 1512 1513 1507 1504 1504 1503 1505 1506 1507 1510 1514 1512 1501 1500 1514 1509 1489 1483 1479 1471 1475 1482 1483 1484 1486 1488 1488 1488 1489 1491 1491 1491
1511 1512 1513 1514 1514 1515 1516 1517 1518 1518 1518 1519 1518 1519 1520 1518 1520 1519 1517 1521 1512 1495 1495 1498 1497 1498 1499 1499 1499 1501 1503 1502 1502 1503 1503 1504 1505 1505 1506 1505 1505 1506 1504 1506 1511 1506 1501 1502 1504 1506 1508 1509 1511 1510 1505 1505 1512 1513 1506 1505 1505 1504 1507 1508 1509 1513 1512 1509 1504 1500 1507 1510 1499 1488 1476 1469 1478 1485 1485 1488 1489 1489 1490 1490 1492 1493 1493 1494
1509 1510 1511 1512 1513 1514 1514 1515 1516 1516 1517 1518 1517 1519 1519 1518 1520 1517 1521 1530 1511 1492 1494 1497 1497 1499 1498 1499 1499 1500 1502 1500 1502 1504 1502 1504 1505 1505 1506 1505 1504 1504 1502 1508 1513 1506 1500 1503 1504 1506 1509 1510 1509 1507 1504 1503 1508 1509 1505 1505 1505 1505 1507 1507 1509 1512 1509 1510 1511 1501 1500 1508 1501 1483 1469 1467 1479 1487 1487 1490 1491 1491 1492 1492 1493 1494 1494 1495
1508 1508 1509 1510 1511 1512 1513 1514 1515 1515 1516 1517 1518 1519 1518 1519 1519 1516 1526 1530 1505 1490 1496 1497 1497 1499 1498 1499 1500 1499 1500 1499 1501 1503 1502 1504 1504 1504 1506 1504 1503 1503 1502 1505 1508 1504 1501 1503 1503 1504 1507 1507 1503 1503 1503 1503 1505 1506 1505 1505 1504 1505 1505 1506 1510 1511 1510 1515 1514 1501 1497 1506 1499 1478 1468 1471 1479 1486 1489 1491 1492 1493 1494 1494 1494 1494 1494 1494
1505 1506 1507 1508 1509 1510 1511 1512 1513 1515 1515 1516 1517 1518 1518 1518 1519 1523 1532 1523 1501 1494 1498 1496 1497 1498 1497 1499 1499 1499 1499 1499 1500 1502 1503 1504 1503 1504 1504 1504 1504 1504 1503 1504 1503 1501 1501 1503 1503 1502 1502 1501 1500 1502 1503 1503 1504 1505 1505 1505 1505 1504 1503 1506 1507 1508 1515 1515 1507 1497 1492 1500 1502 1482 1470 1473 1476 1481 1486 1489 1492 1493 1494 1495 1495 1494 1494 1493
1503 1504 1504 1505 1507 1508 1509 1511 1512 1513 1514 1515 1516 1517 1518 1517 1519 1528 1528 1511 1500 1499 1497 1497 1498 1496 1497 1498 1498 1498 1497 1498 1500 1501 1503 1503 1504 1505 1504 1505 1505 1506 1508 1507 1504 1501 1502 1504 1502 1499 1498 1498 1500 1502 1503 1504 1504 1505 1506 1508 1509 1506 1504 1510 1510 1511 1521 1514 1499 1492 1487 1494 1502 1485 1472 1474 1473 1473 1479 1483 1488 1491 1493 1494 1494 1495 1494 1493
1501 1502 1503 1504 1505 1506 1508 1509 1510 1512 1512 1514 1515 1515 1518 1521 1522 1522 1515 1504 1502 1500 1495 1497 1497 1495 1497 1496 1496 1497 1496 1498 1498 1499 1500 1501 1503 1503 1503 1503 1502 1506 1509 1506 1502 1501 1501 1500 1497 1496 1496 1497 1500 1503 1505 1505 1504 1506 1507 1511 1516 1513 1510 1514 1515 1514 1516 1509 1496 1491 1489 1494 1495 1480 1470 1474 1475 1475 1476 1479 1484 1488 1491 1493 1493 1494 1494 1494
1500 1500 1501 1503 1504 1504 1506 1507 1509 1511 1511 1512 1514 1515 1519 1525 1519 1510 1506 1502 1500 1497 1494 1497 1496 1495 1497 1497 1497 1497 1497 1497 1497 1498 1498 1498 1500 1499 1498 1497 1496 1501 1504 1501 1501 1502 1500 1495 1494 1497 1497 1495 1498 1502 1505 1503 1505 1507 1506 1509 1515 1515 1517 1518 1513 1508 1506 1502 1496 1491 1494 1499 1493 1479 1473 1476 1480 1480 1479 1482 1486 1488 1491 1493 1494 1495 1495 1495
1498 1498 1500 1501 1502 1503 1504 1506 1508 1509 1510 1511 1513 1517 1521 1520 1510 1502 1501 1498 1495 1494 1495 1496 1497 1497 1498 1498 1497 1495 1497 1498 1496 1498 1498 1498 1501 1499 1496 1494 1493 1495 1499 1501 1502 1502 1504 1501 1495 1495 1494 1492 1494 1495 1495 1496 1500 1503 1498 1500 1505 1506 1513 1515 1509 1506 1504 1501 1497 1494 1497 1495 1488 1483 1481 1481 1484 1484 1484 1487 1488 1490 1493 1493 1494 1495 1495 1495
1495 1496 1498 1499 1501 1502 1503 1505 1506 1507 1510 1510 1512 1518 1518 1511 1503 1500 1498 1493 1491 1494 1495 1496 1497 1499 1499 1496 1494 1492 1495 1497 1496 1497 1498 1498 1498 1496 1492 1491 1490 1492 1497 1503 1501 1497 1502 1499 1489 1490 1490 1489 1492 1490 1490 1493 1498 1500 1495 1498 1502 1498 1500 1505 1503 1501 1503 1507 1502 1496 1493 1483 1478 1483 1484 1485 1488 1488 1490 1491 1491 1493 1494 1494 1495 1496 1496 1497
1493 1494 1496 1497 1498 1500 1502 1503 1504 1506 1507 1508 1512 1513 1507 1500 1496 1495 1492 1489 1490 1492 1495 1498 1498 1500 1501 1496 1493 1491 1492 1495 1496 1497 1497 1495 1494 1491 1489 1488 1487 1490 1494 1498 1497 1495 1500 1496 1488 1491 1491 1489 1491 1490 1490 1493 1496 1500 1500 1500 1499 1494 1494 1501 1503 1498 1502 1511 1502 1491 1489 1482 1477 1484 1487 1488 1490 1491 1494 1494 1495 1497 1496 1496 1497 1497 1498 1498
1491 1492 1493 1494 1496 1498 1500 1501 1503 1505 1506 1508 1510 1505 1497 1494 1492 1490 1489 1489 1490 1490 1494 1499 1498 1497 1499 1496 1493 1492 1493 1495 1496 1498 1497 1494 1492 1489 1487 1487 1487 1488 1489 1492 1494 1494 1498 1498 1490 1489 1491 1490 1490 1491 1490 1490 1492 1497 1500 1498 1495 1494 1495 1499 1506 1506 1507 1512 1500 1487 1490 1488 1483 1486 1488 1489 1491 1494 1497 1497 1498 1499 1498 1498 1498 1498 1499 1499
1490 1491 1491 1492 1494 1496 1498 1500 1501 1503 1505 1505 1503 1497 1494 1493 1491 1489 1489 1489 1490 1490 1494 1499 1496 1494 1495 1496 1493 1493 1497 1498 1496 1499 1499 1495 1491 1486 1484 1487 1488 1488 1488 1490 1494 1493 1496 1501 1494 1486 1489 1491 1489 1492 1493 1491 1491 1493 1496 1495 1495 1501 1502 1499 1506 1512 1511 1511 1501 1489 1488 1485 1481 1485 1487 1489 1492 1495 1498 1499 1500 1500 1499 1499 1498 1498 1499 1499
1489 1490 1489 1489 1491 1494 1496 1498 1499 1502 1502 1500 1498 1495 1492 1491 1489 1489 1490 1490 1491 1493 1496 1497 1497 1497 1498 1497 1495 1494 1497 1497 1494 1496 1497 1493 1490 1485 1484 1487 1490 1490 1490 1490 1494 1493 1494 1502 1500 1489 1489 1492 1491 1494 1496 1494 1493 1494 1496 1495 1495 1500 1502 1499 1500 1502 1504 1506 1501 1495 1490 1482 1480 1486 1486 1487 1490 1495 1498 1499 1500 1500 1499 1499 1498 1499 1500 1499
1487 1489 1487 1486 1488 1491 1494 1497 1499 1499 1497 1493 1493 1493 1491 1490 1489 1489 1489 1490 1491 1493 1496 1496 1497 1500 1500 1498 1498 1496 1495 1495 1492 1493 1493 1489 1487 1487 1488 1489 1490 1492 1492 1491 1494 1495 1494 1499 1502 1494 1491 1494 1494 1493 1494 1493 1494 1496 1498 1499 1497 1497 1497 1498 1497 1493 1497 1503 1500 1499 1493 1482 1484 1492 1489 1488 1491 1494 1496 1498 1500 1500 1499 1499 1499 1499 1499 1498
1486 1488 1485 1485 1487 1489 1492 1496 1496 1495 1493 1489 1488 1490 1489 1489 1489 1489 1490 1491 1491 1491 1493 1493 1494 1497 1497 1497 1496 1494 1493 1492 1490 1491 1491 1488 1487 1490 1492 1492 1492 1493 1494 1493 1495 1497 1497 1499 1502 1499 1496 1496 1494 1489 1490 1492 1493 1496 1500 1501 1500 1500 1501 1506 1504 1492 1493 1499 1498 1499 1494 1484 1489 1495 1491 1492 1494 1494 1496 1498 1498 1499 1499 1498 1498 1497 1497 1497
1485 1485 1482 1483 1485 1487 1490 1492 1490 1490 1489 1486 1484 1486 1487 1487 1487 1488 1489 1489 1490 1490 1490 1491 1491 1492 1493 1493 1491 1490 1491 1491 1490 1490 1491 1488 1487 1491 1494 1494 1493 1493 1495 1497 1498 1499 1500 1502 1504 1502 1498 1495 1491 1488 1490 1491 1490 1493 1497 1498 1499 1502 1506 1510 1507 1497 1496 1496 1495 1498 1495 1487 1492 1495 1491 1493 1494 1493 1495 1495 1495 1497 1496 1496 1496 1496 1496 1496
1481 1482 1481 1481 1483 1485 1488 1489 1487 1487 1485 1482 1481 1483 1483 1484 1485 1486 1486 1487 1488 1489 1488 1488 1488 1489 1489 1489 1489 1489 1489 1491 1490 1489 1489 1489 1489 1494 1495 1494 1494 1494 1495 1498 1499 1500 1501 1503 1505 1504 1498 1493 1489 1487 1490 1490 1490 1494 1496 1496 1499 1502 1503 1505 1504 1504 1506 1501 1496 1500 1496 1489 1493 1494 1491 1493 1492 1491 1492 1491 1492 1494 1493 1494 1495 1494 1495 1495
1478 1479 1479 1480 1482 1484 1485 1483 1482 1483 1481 1480 1481 1481 1481 1481 1481 1482 1483 1484 1485 1486 1487 1486 1485 1486 1486 1486 1487 1487 1488 1491 1490 1487 1488 1489 1492 1495 1495 1493 1494 1495 1496 1498 1499 1501 1503 1504 1507 1510 1507 1501 1495 1492 1493 1494 1495 1499 1500 1500 1501 1501 1502 1504 1504 1506 1507 1499 1496 1503 1498 1487 1490 1494 1492 1492 1491 1490 1491 1490 1490 1491 1491 1492 1493 1493 1494 1494
1477 1478 1478 1478 1480 1481 1479 1476 1476 1477 1477 1478 1479 1478 1478 1478 1477 1479 1481 1481 1482 1483 1484 1484 1483 1483 1484 1485 1486 1486 1487 1490 1490 1488 1488 1489 1493 1496 1494 1494 1495 1495 1497 1499 1498 1500 1504 1503 1505 1511 1513 1510 1504 1498 1497 1499 1500 1502 1502 1500 1500 1500 1501 1503 1505 1507 1505 1497 1498 1504 1497 1487 1488 1492 1491 1491 1490 1490 1489 1489 1489 1489 1489 1490 1491 1492 1494 1494
1475 1475 1475 1477 1479 1478 1475 1474 1475 1475 1474 1475 1476 1475 1475 1475 1474 1476 1478 1479 1480 1480 1481 1482 1482 1483 1484 1485 1487 1487 1486 1488 1489 1489 1488 1490 1494 1495 1495 1495 1495 1496 1498 1498 1498 1500 1503 1502 1502 1505 1507 1506 1503 1498 1496 1499 1503 1503 1501 1500 1499 1499 1500 1502 1506 1506 1503 1501 1501 1499 1493 1490 1489 1486 1486 1488 1489 1489 1488 1487 1488 1488 1488 1489 1490 1492 1492 1493
1472 1470 1470 1473 1475 1474 1473 1473 1474 1474 1472 1472 1472 1470 1471 1473 1473 1474 1476 1477 1478 1479 1480 1480 1481 1483 1484 1485 1487 1488 1487 1487 1488 1488 1488 1490 1493 1495 1497 1496 1496 1498 1498 1498 1499 1500 1503 1504 1502 1501 1503 1501 1499 1498 1497 1499 1502 1502 1500 1498 1497 1497 1498 1501 1503 1502 1501 1504 1500 1491 1488 1492 1490 1484 1483 1485 1486 1486 1485 1484 1486 1486 1487 1489 1490 1491 1492 1492
1469 1467 1464 1466 1467 1467 1468 1468 1469 1472 1472 1471 1470 1468 1468 1470 1471 1473 1475 1476 1476 1477 1479 1480 1480 1480 1482 1482 1485 1487 1487 1488 1488 1487 1488 1490 1492 1495 1497 1496 1497 1498 1498 1499 1500 1499 1504 1505 1500 1500 1502 1499 1498 1499 1498 1498 1499 1498 1498 1496 1494 1494 1494 1496 1498 1497 1498 1500 1496 1489 1489 1490 1487 1484 1483 1483 1483 1483 1482 1483 1484 1485 1487 1488 1489 1490 1491 1491
1467 1465 1463 1463 1463 1461 1462 1464 1467 1470 1471 1471 1470 1468 1467 1468 1469 1469 1471 1474 1477 1476 1477 1479 1479 1478 1479 1480 1484 1487 1488 1489 1490 1488 1489 1492 1494 1495 1497 1498 1498 1498 1498 1499 1499 1499 1504 1504 1500 1501 1502 1500 1498 1498 1497 1499 1500 1498 1496 1495 1492 1490 1489 1491 1493 1492 1493 1493 1490 1488 1489 1487 1484 1483 1482 1483 1483 1482 1482 1483 1484 1485 1487 1487 1488 1489 1489 1489
1465 1465 1463 1462 1461 1460 1461 1463 1466 1469 1470 1470 1470 1467 1467 1468 1468 1467 1468 1472 1476 1476 1475 1477 1478 1478 1480 1480 1483 1486 1487 1488 1490 1489 1491 1494 1494 1495 1497 1497 1497 1498 1499 1500 1499 1500 1503 1503 1499 1501 1504 1502 1499 1498 1499 1500 1499 1498 1497 1493 1489 1488 1488 1490 1490 1489 1490 1490 1487 1487 1488 1485 1482 1483 1483 1483 1484 1483 1483 1484 1484 1485 1486 1486 1487 1488 1488 1488
1464 1463 1463 1463 1462 1460 1462 1462 1463 1466 1468 1467 1466 1465 1467 1468 1467 1468 1469 1469 1471 1473 1473 1475 1478 1480 1482 1482 1484 1486 1486 1488 1489 1489 1491 1493 1493 1494 1496 1495 1496 1498 1499 1500 1500 1500 1502 1502 1499 1500 1507 1504 1497 1499 1502 1499 1500 1502 1498 1490 1487 1488 1489 1487 1486 1487 1488 1487 1487 1488 1487 1483 1482 1484 1484 1483 1483 1483 1484 1484 1484 1485 1485 1485 1486 1487 1487 1487
1463 1463 1463 1464 1462 1460 1460 1461 1462 1464 1463 1461 1462 1463 1465 1466 1466 1468 1470 1469 1469 1471 1472 1474 1477 1480 1482 1484 1485 1485 1485 1487 1489 1489 1491 1492 1492 1493 1494 1495 1495 1497 1498 1499 1500 1500 1500 1503 1501 1502 1507 1504 1498 1500 1502 1503 1507 1503 1490 1483 1484 1486 1485 1484 1483 1483 1483 1483 1486 1486 1483 1480 1482 1483 1483 1483 1483 1484 1484 1484 1485 1485 1484 1485 1485 1485 1486 1486